{"data":{"norad_id":58369,"epoch":"2026-05-24T17:32:25.326816Z","epoch_age_seconds":98257,"freshness":"FRESH","line1":"1 58369U 23177U   26144.73084869  .00003257  00000+0  12780-3 0  9990","line2":"2 58369  43.0003 281.4408 0001316 278.0587  82.0116 15.27586077139850","mean_motion":15.27586077,"eccentricity":0.0001316,"inclination_deg":43.0003,"raan_deg":281.4408,"arg_perigee_deg":278.0587,"mean_anomaly_deg":82.0116,"bstar":0.0001278,"rev_number":13985,"period_min":94.266373704321,"perigee_km":482.12796968023,"apogee_km":483.93382907135,"semimajor_km":6861.1678993758,"source":"CELESTRAK","updated_at":"2026-05-25T13:38:18.610336Z"}}